Terug naar catalogus

CAIYUN GUANGXE 01

ActiefWetenschapSSO
NORAD 69540·PAYLOAD·🇨🇳 China
Deze satellietnaam is nog niet bevestigd door officiële bronnen.

Gelanceerd Jun 15, 2026 vanaf Jiuquan Satellite Launch Center

Loading…

Volgende Passages (komende 24 uur)

TLE

VersSource: Space-Track

Epoch: Sep 14, 2026, 11:11 UTC

1 69540U 26134C   26257.46633989  .00003722  00000-0  23763-3 0  9998
2 69540  97.6917 327.9255 0017733 337.4093  22.6353 15.09175629 13772

Volg CAIYUN GUANGXE 01 in realtime met AllMySat

Download on the App Store